Location: Aboncourt
(47.7710°N, 5.9826°E)
Time: 02:46:59
(UTC+00:00)

Cosmos 2263 Rocket - Pass Details

Date: 05 July 2020
Orbit: 825 x 847 km, 71.0° (Epoch: 03 August)

Event Time Altitude Azimuth Distance (km) Brightness Sun altitude
Rises 20:24:30 0° 322° (NW) 3,374 7.8 -6.9°
Reaches altitude 10° 20:27:23 10° 309° (NW) 2,434 6.3 -7.3°
Maximum altitude 20:31:39 23° 258° (WSW) 1,688 4.2 -7.8°
Drops below altitude 10° 20:35:54 10° 208° (SSW) 2,422 4.4 -8.2°
Sets 20:38:46 0° 194° (SSW) 3,352 5.0 -8.6°
